Time,TemperatureF,DewpointF,PressureIn,WindDirection,WindDirectionDegrees,WindSpeedMPH,WindSpeedGustMPH,Humidity,HourlyPrecipIn,Conditions,Clouds,dailyrainin,SoftwareType,DateUTC
2013-03-12 00:00:00,41.4,30.1,29.58,NNW,348,0.0,0.0,64,0.00,,,0.00,VWS V14.01,2013-03-12 05:00:00,
2013-03-12 00:05:00,41.3,30.4,29.58,NNW,348,0.0,1.0,65,0.00,,,0.00,VWS V14.01,2013-03-12 05:05:00,
2013-03-12 00:10:00,41.2,30.3,29.58,NNW,348,0.0,1.0,65,0.00,,,0.00,VWS V14.01,2013-03-12 05:10:00,
2013-03-12 00:15:00,41.1,30.2,29.58,NNW,348,0.0,0.0,65,0.00,,,0.00,VWS V14.01,2013-03-12 05:15:00,
2013-03-12 00:20:00,40.9,30.1,29.58,NNW,348,1.0,1.0,65,0.00,,,0.00,VWS V14.01,2013-03-12 05:20:00,
2013-03-12 00:25:00,40.9,30.4,29.58,NNW,348,0.0,1.0,66,0.00,,,0.00,VWS V14.01,2013-03-12 05:25:00,
2013-03-12 00:30:00,40.7,29.9,29.57,NNW,348,0.0,1.0,65,0.00,,,0.00,VWS V14.01,2013-03-12 05:30:00,
2013-03-12 00:35:00,40.7,29.5,29.58,NNW,348,0.0,0.0,64,0.00,,,0.00,VWS V14.01,2013-03-12 05:35:00,
2013-03-12 00:40:00,40.6,28.6,29.58,NNW,348,0.0,0.0,62,0.00,,,0.00,VWS V14.01,2013-03-12 05:40:00,
2013-03-12 00:45:00,40.6,28.6,29.58,NNW,348,0.0,1.0,62,0.00,,,0.00,VWS V14.01,2013-03-12 05:45:00,
2013-03-12 00:50:00,40.6,28.6,29.57,NNW,348,0.0,1.0,62,0.00,,,0.00,VWS V14.01,2013-03-12 05:50:00,
2013-03-12 00:55:00,40.6,29.0,29.58,NNW,348,0.0,2.0,63,0.00,,,0.00,VWS V14.01,2013-03-12 05:55:00,
2013-03-12 01:00:00,40.7,29.5,29.58,NNW,348,0.0,2.0,64,0.00,,,0.00,VWS V14.01,2013-03-12 06:00:00,
2013-03-12 01:05:00,40.6,29.8,29.58,NNW,348,0.0,0.0,65,0.00,,,0.00,VWS V14.01,2013-03-12 06:05:00,
2013-03-12 01:10:00,40.5,29.7,29.58,NNW,348,0.0,0.0,65,0.00,,,0.00,VWS V14.01,2013-03-12 06:10:00,
2013-03-12 01:15:00,40.4,30.0,29.58,NNW,348,0.0,0.0,66,0.00,,,0.00,VWS V14.01,2013-03-12 06:15:00,
2013-03-12 01:20:00,40.4,30.0,29.58,NNW,348,0.0,0.0,66,0.00,,,0.00,VWS V14.01,2013-03-12 06:20:00,
2013-03-12 01:25:00,40.2,29.8,29.57,NNW,348,0.0,0.0,66,0.00,,,0.00,VWS V14.01,2013-03-12 06:25:00,
2013-03-12 01:30:00,40.1,29.7,29.58,NNW,348,0.0,1.0,66,0.00,,,0.00,VWS V14.01,2013-03-12 06:30:00,
2013-03-12 01:35:00,40.0,29.9,29.58,NNW,348,0.0,1.0,67,0.00,,,0.00,VWS V14.01,2013-03-12 06:35:00,
2013-03-12 01:40:00,40.0,29.9,29.57,NNW,348,0.0,1.0,67,0.00,,,0.00,VWS V14.01,2013-03-12 06:40:00,
2013-03-12 01:45:00,39.9,29.9,29.58,NNW,348,0.0,0.0,67,0.00,,,0.00,VWS V14.01,2013-03-12 06:45:00,
2013-03-12 01:50:00,39.9,29.9,29.57,NNW,348,0.0,1.0,67,0.00,,,0.00,VWS V14.01,2013-03-12 06:50:00,
2013-03-12 01:55:00,39.9,30.2,29.57,NNW,348,0.0,0.0,68,0.00,,,0.00,VWS V14.01,2013-03-12 06:55:00,
2013-03-12 02:00:00,39.9,30.2,29.58,NNW,348,0.0,1.0,68,0.00,,,0.00,VWS V14.01,2013-03-12 07:00:00,
2013-03-12 02:05:00,39.9,29.9,29.58,NNW,348,0.0,0.0,67,0.00,,,0.00,VWS V14.01,2013-03-12 07:05:00,
2013-03-12 02:10:00,39.8,29.4,29.57,NNW,348,0.0,0.0,66,0.00,,,0.00,VWS V14.01,2013-03-12 07:10:00,
2013-03-12 02:15:00,39.8,29.8,29.57,NNW,348,0.0,0.0,67,0.00,,,0.00,VWS V14.01,2013-03-12 07:15:00,
2013-03-12 02:20:00,39.7,29.7,29.57,NNW,348,0.0,0.0,67,0.00,,,0.00,VWS V14.01,2013-03-12 07:20:00,
2013-03-12 02:25:00,39.7,29.3,29.57,NNW,348,0.0,0.0,66,0.00,,,0.00,VWS V14.01,2013-03-12 07:25:00,
2013-03-12 02:30:00,39.7,28.9,29.57,NNW,348,0.0,0.0,65,0.00,,,0.00,VWS V14.01,2013-03-12 07:30:00,
2013-03-12 02:35:00,39.7,28.5,29.57,NNW,348,0.0,1.0,64,0.00,,,0.00,VWS V14.01,2013-03-12 07:35:00,
2013-03-12 02:40:00,39.7,28.5,29.57,NNW,348,0.0,1.0,64,0.00,,,0.00,VWS V14.01,2013-03-12 07:40:00,
2013-03-12 02:45:00,39.8,28.2,29.57,NNW,348,0.0,2.0,63,0.00,,,0.00,VWS V14.01,2013-03-12 07:45:00,
2013-03-12 02:50:00,39.9,28.0,29.57,NNW,348,0.0,2.0,62,0.00,,,0.00,VWS V14.01,2013-03-12 07:50:00,
2013-03-12 02:55:00,40.0,28.4,29.57,NNW,348,0.0,0.0,63,0.00,,,0.00,VWS V14.01,2013-03-12 07:55:00,
2013-03-12 03:00:00,40.1,28.5,29.57,NNW,348,0.0,0.0,63,0.00,,,0.00,VWS V14.01,2013-03-12 08:00:00,
2013-03-12 03:05:00,40.1,28.9,29.57,NNW,348,0.0,1.0,64,0.00,,,0.00,VWS V14.01,2013-03-12 08:05:00,
2013-03-12 03:10:00,40.0,29.2,29.57,NNW,348,0.0,1.0,65,0.00,,,0.00,VWS V14.01,2013-03-12 08:10:00,
2013-03-12 03:15:00,39.9,29.5,29.57,NNW,348,0.0,1.0,66,0.00,,,0.00,VWS V14.01,2013-03-12 08:15:00,
2013-03-12 03:20:00,39.8,29.8,29.57,NNW,348,0.0,1.0,67,0.00,,,0.00,VWS V14.01,2013-03-12 08:20:00,
2013-03-12 03:25:00,39.6,29.9,29.57,NNW,348,0.0,0.0,68,0.00,,,0.00,VWS V14.01,2013-03-12 08:25:00,
2013-03-12 03:30:00,39.4,29.7,29.57,NNW,348,0.0,1.0,68,0.00,,,0.00,VWS V14.01,2013-03-12 08:30:00,
2013-03-12 03:35:00,39.2,29.9,29.56,NNW,348,0.0,1.0,69,0.00,,,0.00,VWS V14.01,2013-03-12 08:35:00,
2013-03-12 03:40:00,39.1,29.8,29.56,NNW,348,0.0,1.0,69,0.00,,,0.00,VWS V14.01,2013-03-12 08:40:00,
2013-03-12 03:45:00,39.0,29.7,29.56,NNW,348,0.0,1.0,69,0.00,,,0.00,VWS V14.01,2013-03-12 08:45:00,
2013-03-12 03:50:00,38.9,29.6,29.55,NNW,348,0.0,1.0,69,0.00,,,0.00,VWS V14.01,2013-03-12 08:50:00,
2013-03-12 03:55:00,38.8,29.5,29.55,NNW,348,1.0,1.0,69,0.00,,,0.00,VWS V14.01,2013-03-12 08:55:00,
2013-03-12 04:00:00,38.8,29.2,29.55,NNW,348,0.0,1.0,68,0.00,,,0.00,VWS V14.01,2013-03-12 09:00:00,
2013-03-12 04:05:00,38.7,29.1,29.55,NNW,348,0.0,0.0,68,0.00,,,0.00,VWS V14.01,2013-03-12 09:05:00,
2013-03-12 04:10:00,38.7,29.1,29.55,NNW,348,0.0,1.0,68,0.00,,,0.00,VWS V14.01,2013-03-12 09:10:00,
2013-03-12 04:15:00,38.6,29.0,29.56,NNW,348,0.0,0.0,68,0.00,,,0.00,VWS V14.01,2013-03-12 09:15:00,
2013-03-12 04:20:00,38.6,29.0,29.56,NNW,348,0.0,0.0,68,0.00,,,0.00,VWS V14.01,2013-03-12 09:20:00,
2013-03-12 04:25:00,38.5,28.9,29.56,NNW,348,0.0,0.0,68,0.00,,,0.00,VWS V14.01,2013-03-12 09:25:00,
2013-03-12 04:30:00,38.4,28.8,29.56,NNW,348,0.0,0.0,68,0.00,,,0.00,VWS V14.01,2013-03-12 09:30:00,
2013-03-12 04:35:00,38.3,29.0,29.56,NNW,348,0.0,0.0,69,0.00,,,0.00,VWS V14.01,2013-03-12 09:35:00,
2013-03-12 04:40:00,38.1,28.8,29.56,NNW,348,0.0,0.0,69,0.00,,,0.00,VWS V14.01,2013-03-12 09:40:00,
2013-03-12 04:45:00,38.0,29.1,29.55,NNW,348,0.0,0.0,70,0.00,,,0.00,VWS V14.01,2013-03-12 09:45:00,
2013-03-12 04:50:00,37.9,29.4,29.56,NNW,348,0.0,0.0,71,0.00,,,0.00,VWS V14.01,2013-03-12 09:50:00,
2013-03-12 04:55:00,37.7,29.2,29.56,NNW,348,0.0,1.0,71,0.00,,,0.00,VWS V14.01,2013-03-12 09:55:00,
2013-03-12 05:00:00,37.7,29.2,29.56,NNW,348,0.0,1.0,71,0.00,,,0.00,VWS V14.01,2013-03-12 10:00:00,
2013-03-12 05:05:00,37.9,29.0,29.56,North,349,2.0,2.0,70,0.00,,,0.00,VWS V14.01,2013-03-12 10:05:00,
2013-03-12 05:10:00,38.0,28.8,29.56,North,349,0.0,2.0,69,0.00,,,0.00,VWS V14.01,2013-03-12 10:10:00,
2013-03-12 05:15:00,38.1,28.5,29.56,North,349,0.0,0.0,68,0.00,,,0.00,VWS V14.01,2013-03-12 10:15:00,
2013-03-12 05:20:00,38.2,28.6,29.56,North,349,0.0,2.0,68,0.00,,,0.00,VWS V14.01,2013-03-12 10:20:00,
2013-03-12 05:25:00,38.4,28.4,29.56,North,349,0.0,0.0,67,0.00,,,0.00,VWS V14.01,2013-03-12 10:25:00,
2013-03-12 05:30:00,38.5,28.1,29.56,North,349,0.0,0.0,66,0.00,,,0.00,VWS V14.01,2013-03-12 10:30:00,
2013-03-12 05:35:00,38.6,27.9,29.56,North,349,0.0,0.0,65,0.00,,,0.00,VWS V14.01,2013-03-12 10:35:00,
2013-03-12 05:40:00,38.7,28.0,29.57,North,349,1.0,1.0,65,0.00,,,0.00,VWS V14.01,2013-03-12 10:40:00,
2013-03-12 05:45:00,38.7,28.0,29.57,North,349,0.0,1.0,65,0.00,,,0.00,VWS V14.01,2013-03-12 10:45:00,
2013-03-12 05:50:00,38.7,28.0,29.57,North,349,0.0,1.0,65,0.00,,,0.00,VWS V14.01,2013-03-12 10:50:00,
2013-03-12 05:55:00,38.7,28.0,29.57,North,349,0.0,0.0,65,0.00,,,0.00,VWS V14.01,2013-03-12 10:55:00,
2013-03-12 06:00:00,38.6,28.2,29.58,North,349,0.0,1.0,66,0.00,,,0.00,VWS V14.01,2013-03-12 11:00:00,
2013-03-12 06:05:00,38.6,28.6,29.58,North,349,0.0,0.0,67,0.00,,,0.00,VWS V14.01,2013-03-12 11:05:00,
2013-03-12 06:10:00,38.6,28.6,29.58,North,349,0.0,0.0,67,0.00,,,0.00,VWS V14.01,2013-03-12 11:10:00,
2013-03-12 06:15:00,38.5,28.5,29.59,North,349,0.0,0.0,67,0.00,,,0.00,VWS V14.01,2013-03-12 11:15:00,
2013-03-12 06:20:00,38.4,29.1,29.59,North,349,0.0,0.0,69,0.00,,,0.00,VWS V14.01,2013-03-12 11:20:00,
2013-03-12 06:25:00,38.4,29.1,29.59,North,349,0.0,0.0,69,0.00,,,0.00,VWS V14.01,2013-03-12 11:25:00,
2013-03-12 06:30:00,38.2,28.9,29.60,North,349,0.0,0.0,69,0.00,,,0.00,VWS V14.01,2013-03-12 11:30:00,
2013-03-12 06:35:00,38.1,28.8,29.60,North,349,0.0,0.0,69,0.00,,,0.00,VWS V14.01,2013-03-12 11:35:00,
2013-03-12 06:40:00,38.0,28.8,29.60,North,349,0.0,0.0,69,0.00,,,0.00,VWS V14.01,2013-03-12 11:40:00,
2013-03-12 06:45:00,37.9,28.6,29.60,North,349,0.0,0.0,69,0.00,,,0.00,VWS V14.01,2013-03-12 11:45:00,
2013-03-12 06:50:00,37.7,28.8,29.60,North,349,0.0,0.0,70,0.00,,,0.00,VWS V14.01,2013-03-12 11:50:00,
2013-03-12 06:55:00,37.6,28.7,29.60,North,349,0.0,0.0,70,0.00,,,0.00,VWS V14.01,2013-03-12 11:55:00,
2013-03-12 07:00:00,37.5,28.6,29.60,North,349,0.0,0.0,70,0.00,,,0.00,VWS V14.01,2013-03-12 12:00:00,
2013-03-12 07:05:00,37.3,28.4,29.61,North,349,0.0,0.0,70,0.00,,,0.00,VWS V14.01,2013-03-12 12:05:00,
2013-03-12 07:10:00,37.3,28.8,29.61,North,349,0.0,0.0,71,0.00,,,0.00,VWS V14.01,2013-03-12 12:10:00,
2013-03-12 07:15:00,37.1,28.9,29.61,North,349,0.0,0.0,72,0.00,,,0.00,VWS V14.01,2013-03-12 12:15:00,
2013-03-12 07:20:00,37.0,28.8,29.61,North,349,0.0,0.0,72,0.00,,,0.00,VWS V14.01,2013-03-12 12:20:00,
2013-03-12 07:25:00,36.9,28.7,29.61,North,349,0.0,0.0,72,0.00,,,0.00,VWS V14.01,2013-03-12 12:25:00,
2013-03-12 07:30:00,36.8,28.6,29.61,North,349,0.0,0.0,72,0.00,,,0.00,VWS V14.01,2013-03-12 12:30:00,
2013-03-12 07:35:00,36.6,28.4,29.61,North,349,0.0,0.0,72,0.00,,,0.00,VWS V14.01,2013-03-12 12:35:00,
2013-03-12 07:40:00,36.5,28.4,29.61,North,349,0.0,0.0,72,0.00,,,0.00,VWS V14.01,2013-03-12 12:40:00,
2013-03-12 07:45:00,36.4,28.6,29.61,North,349,0.0,0.0,73,0.00,,,0.00,VWS V14.01,2013-03-12 12:45:00,
2013-03-12 07:50:00,36.3,28.5,29.62,North,349,0.0,0.0,73,0.00,,,0.00,VWS V14.01,2013-03-12 12:50:00,
2013-03-12 07:55:00,36.3,28.5,29.62,North,349,0.0,1.0,73,0.00,,,0.00,VWS V14.01,2013-03-12 12:55:00,
2013-03-12 08:00:00,36.2,28.7,29.62,North,349,0.0,1.0,74,0.00,,,0.00,VWS V14.01,2013-03-12 13:00:00,
2013-03-12 08:05:00,36.3,28.8,29.62,North,349,0.0,0.0,74,0.00,,,0.00,VWS V14.01,2013-03-12 13:05:00,
2013-03-12 08:10:00,36.3,29.1,29.62,North,349,0.0,0.0,75,0.00,,,0.00,VWS V14.01,2013-03-12 13:10:00,
2013-03-12 08:15:00,36.4,29.2,29.62,North,349,0.0,0.0,75,0.00,,,0.00,VWS V14.01,2013-03-12 13:15:00,
2013-03-12 08:20:00,36.5,29.3,29.63,North,349,0.0,0.0,75,0.00,,,0.00,VWS V14.01,2013-03-12 13:20:00,
2013-03-12 08:25:00,36.9,29.7,29.62,North,349,0.0,1.0,75,0.00,,,0.00,VWS V14.01,2013-03-12 13:25:00,
2013-03-12 08:30:00,37.9,30.4,29.63,North,349,0.0,1.0,74,0.00,,,0.00,VWS V14.01,2013-03-12 13:30:00,
2013-03-12 08:35:00,40.3,30.6,29.63,North,349,0.0,1.0,68,0.00,,,0.00,VWS V14.01,2013-03-12 13:35:00,
2013-03-12 08:40:00,42.2,31.3,29.63,North,349,0.0,1.0,65,0.00,,,0.00,VWS V14.01,2013-03-12 13:40:00,
2013-03-12 08:45:00,43.5,30.1,29.64,North,349,1.0,1.0,59,0.00,,,0.00,VWS V14.01,2013-03-12 13:45:00,
2013-03-12 08:50:00,44.6,31.6,29.64,North,349,0.0,1.0,60,0.00,,,0.00,VWS V14.01,2013-03-12 13:50:00,
2013-03-12 08:55:00,45.3,30.5,29.64,North,350,1.0,3.0,56,0.00,,,0.00,VWS V14.01,2013-03-12 13:55:00,
2013-03-12 09:00:00,45.9,30.2,29.65,North,350,2.0,3.0,54,0.00,,,0.00,VWS V14.01,2013-03-12 14:00:00,
2013-03-12 09:05:00,46.4,29.8,29.65,North,350,0.0,3.0,52,0.00,,,0.00,VWS V14.01,2013-03-12 14:05:00,
2013-03-12 09:10:00,47.1,30.4,29.66,North,350,0.0,3.0,52,0.00,,,0.00,VWS V14.01,2013-03-12 14:10:00,
2013-03-12 09:15:00,47.9,30.7,29.66,North,360,0.0,2.0,51,0.00,,,0.00,VWS V14.01,2013-03-12 14:15:00,
2013-03-12 09:20:00,48.5,29.7,29.66,South,173,0.0,3.0,48,0.00,,,0.00,VWS V14.01,2013-03-12 14:20:00,
2013-03-12 09:25:00,49.0,29.7,29.66,SSE,161,0.0,4.0,47,0.00,,,0.00,VWS V14.01,2013-03-12 14:25:00,
2013-03-12 09:30:00,49.3,29.4,29.66,SSE,148,1.0,4.0,46,0.00,,,0.00,VWS V14.01,2013-03-12 14:30:00,
2013-03-12 09:35:00,49.9,32.0,29.67,SSE,147,2.0,3.0,50,0.00,,,0.00,VWS V14.01,2013-03-12 14:35:00,
2013-03-12 09:40:00,51.0,31.0,29.67,SE,142,0.0,3.0,46,0.00,,,0.00,VWS V14.01,2013-03-12 14:40:00,
2013-03-12 09:45:00,51.3,29.6,29.67,SSE,164,0.0,4.0,43,0.00,,,0.00,VWS V14.01,2013-03-12 14:45:00,
2013-03-12 09:50:00,51.6,31.5,29.67,SSE,155,0.0,4.0,46,0.00,,,0.00,VWS V14.01,2013-03-12 14:50:00,
2013-03-12 09:55:00,51.9,31.2,29.67,SSE,148,1.0,3.0,45,0.00,,,0.00,VWS V14.01,2013-03-12 14:55:00,
2013-03-12 10:00:00,52.8,32.1,29.67,ESE,114,1.0,4.0,45,0.00,,,0.00,VWS V14.01,2013-03-12 15:00:00,
2013-03-12 10:05:00,53.1,31.8,29.67,SSE,157,6.0,7.0,44,0.00,,,0.00,VWS V14.01,2013-03-12 15:05:00,
2013-03-12 10:10:00,53.7,32.9,29.67,ESE,111,2.0,7.0,45,0.00,,,0.00,VWS V14.01,2013-03-12 15:10:00,
2013-03-12 10:15:00,54.8,33.3,29.67,SSE,148,0.0,6.0,44,0.00,,,0.00,VWS V14.01,2013-03-12 15:15:00,
2013-03-12 10:20:00,55.7,32.4,29.68,SSE,155,0.0,6.0,41,0.00,,,0.00,VWS V14.01,2013-03-12 15:20:00,
2013-03-12 10:25:00,56.3,31.0,29.68,East,97,0.0,7.0,38,0.00,,,0.00,VWS V14.01,2013-03-12 15:25:00,
2013-03-12 10:30:00,56.8,30.1,29.69,East,92,1.0,7.0,36,0.00,,,0.00,VWS V14.01,2013-03-12 15:30:00,
2013-03-12 10:35:00,57.4,30.7,29.69,SSE,163,4.0,7.0,36,0.00,,,0.00,VWS V14.01,2013-03-12 15:35:00,
2013-03-12 10:40:00,57.3,29.2,29.70,SSE,159,2.0,7.0,34,0.00,,,0.00,VWS V14.01,2013-03-12 15:40:00,
2013-03-12 10:45:00,57.2,29.8,29.70,East,87,0.0,7.0,35,0.00,,,0.00,VWS V14.01,2013-03-12 15:45:00,
2013-03-12 10:50:00,58.1,30.6,29.70,SSE,166,3.0,7.0,35,0.00,,,0.00,VWS V14.01,2013-03-12 15:50:00,
2013-03-12 10:55:00,58.9,32.0,29.71,SE,146,0.0,4.0,36,0.00,,,0.00,VWS V14.01,2013-03-12 15:55:00,
2013-03-12 11:00:00,58.8,29.8,29.71,South,178,4.0,4.0,33,0.00,,,0.00,VWS V14.01,2013-03-12 16:00:00,
2013-03-12 11:05:00,58.6,30.3,29.71,East,98,1.0,3.0,34,0.00,,,0.00,VWS V14.01,2013-03-12 16:05:00,
2013-03-12 11:10:00,59.4,32.5,29.71,SSE,161,3.0,5.0,36,0.00,,,0.00,VWS V14.01,2013-03-12 16:10:00,
2013-03-12 11:15:00,59.8,29.9,29.71,East,98,0.0,4.0,32,0.00,,,0.00,VWS V14.01,2013-03-12 16:15:00,
2013-03-12 11:20:00,60.4,30.4,29.71,East,97,1.0,4.0,32,0.00,,,0.00,VWS V14.01,2013-03-12 16:20:00,
2013-03-12 11:25:00,60.3,31.1,29.71,ESE,106,0.0,5.0,33,0.00,,,0.00,VWS V14.01,2013-03-12 16:25:00,
2013-03-12 11:30:00,60.8,30.8,29.70,SE,131,2.0,5.0,32,0.00,,,0.00,VWS V14.01,2013-03-12 16:30:00,
2013-03-12 11:35:00,60.9,30.1,29.71,East,90,0.0,5.0,31,0.00,,,0.00,VWS V14.01,2013-03-12 16:35:00,
2013-03-12 11:40:00,61.2,31.1,29.70,SE,131,2.0,5.0,32,0.00,,,0.00,VWS V14.01,2013-03-12 16:40:00,
2013-03-12 11:45:00,61.6,29.1,29.70,ESE,114,0.0,5.0,29,0.00,,,0.00,VWS V14.01,2013-03-12 16:45:00,
2013-03-12 11:50:00,61.5,30.6,29.71,SE,135,1.0,6.0,31,0.00,,,0.00,VWS V14.01,2013-03-12 16:50:00,
2013-03-12 11:55:00,61.5,29.0,29.70,East,98,2.0,5.0,29,0.00,,,0.00,VWS V14.01,2013-03-12 16:55:00,
2013-03-12 12:00:00,61.6,29.1,29.71,East,101,1.0,5.0,29,0.00,,,0.00,VWS V14.01,2013-03-12 17:00:00,
2013-03-12 12:05:00,61.6,29.9,29.71,SE,132,1.0,3.0,30,0.00,,,0.00,VWS V14.01,2013-03-12 17:05:00,
2013-03-12 12:10:00,62.2,31.2,29.70,ESE,123,2.0,3.0,31,0.00,,,0.00,VWS V14.01,2013-03-12 17:10:00,
2013-03-12 12:15:00,62.7,32.4,29.70,ESE,119,1.0,3.0,32,0.00,,,0.00,VWS V14.01,2013-03-12 17:15:00,
2013-03-12 12:20:00,62.8,32.5,29.70,South,179,1.0,5.0,32,0.00,,,0.00,VWS V14.01,2013-03-12 17:20:00,
2013-03-12 12:25:00,62.4,31.4,29.70,ENE,64,1.0,3.0,31,0.00,,,0.00,VWS V14.01,2013-03-12 17:25:00,
2013-03-12 12:30:00,62.9,31.0,29.70,East,99,2.0,6.0,30,0.00,,,0.00,VWS V14.01,2013-03-12 17:30:00,
2013-03-12 12:35:00,63.5,34.7,29.70,ENE,67,1.0,4.0,34,0.00,,,0.00,VWS V14.01,2013-03-12 17:35:00,
2013-03-12 12:40:00,63.7,32.5,29.70,NNE,30,1.0,4.0,31,0.00,,,0.00,VWS V14.01,2013-03-12 17:40:00,
2013-03-12 12:45:00,63.4,33.0,29.70,SSE,157,2.0,5.0,32,0.00,,,0.00,VWS V14.01,2013-03-12 17:45:00,
2013-03-12 12:50:00,64.2,34.5,29.69,SSE,155,0.0,5.0,33,0.00,,,0.00,VWS V14.01,2013-03-12 17:50:00,
2013-03-12 12:55:00,64.7,35.0,29.69,SSE,149,0.0,3.0,33,0.00,,,0.00,VWS V14.01,2013-03-12 17:55:00,
2013-03-12 13:00:00,64.4,31.5,29.69,East,90,0.0,3.0,29,0.00,,,0.00,VWS V14.01,2013-03-12 18:00:00,
2013-03-12 13:05:00,64.6,32.5,29.69,East,90,0.0,2.0,30,0.00,,,0.00,VWS V14.01,2013-03-12 18:05:00,
2013-03-12 13:10:00,65.4,31.5,29.69,East,96,1.0,5.0,28,0.00,,,0.00,VWS V14.01,2013-03-12 18:10:00,
2013-03-12 13:15:00,65.0,34.5,29.68,ESE,119,1.0,3.0,32,0.00,,,0.00,VWS V14.01,2013-03-12 18:15:00,
2013-03-12 13:20:00,65.9,31.9,29.68,SSW,209,4.0,6.0,28,0.00,,,0.00,VWS V14.01,2013-03-12 18:20:00,
2013-03-12 13:25:00,65.9,33.6,29.68,NE,42,0.0,4.0,30,0.00,,,0.00,VWS V14.01,2013-03-12 18:25:00,
2013-03-12 13:30:00,65.6,32.5,29.68,East,93,2.0,9.0,29,0.00,,,0.00,VWS V14.01,2013-03-12 18:30:00,
2013-03-12 13:35:00,66.1,35.4,29.67,East,93,0.0,2.0,32,0.00,,,0.00,VWS V14.01,2013-03-12 18:35:00,
2013-03-12 13:40:00,66.5,36.5,29.67,East,93,2.0,2.0,33,0.00,,,0.00,VWS V14.01,2013-03-12 18:40:00,
2013-03-12 13:45:00,66.3,34.8,29.67,SSE,157,0.0,6.0,31,0.00,,,0.00,VWS V14.01,2013-03-12 18:45:00,
2013-03-12 13:50:00,66.5,35.0,29.67,ESE,107,1.0,6.0,31,0.00,,,0.00,VWS V14.01,2013-03-12 18:50:00,
2013-03-12 13:55:00,66.8,34.4,29.66,SSE,167,0.0,5.0,30,0.00,,,0.00,VWS V14.01,2013-03-12 18:55:00,
2013-03-12 14:00:00,67.0,36.2,29.66,SSE,150,0.0,5.0,32,0.00,,,0.00,VWS V14.01,2013-03-12 19:00:00,
2013-03-12 14:05:00,67.5,36.6,29.66,East,92,1.0,6.0,32,0.00,,,0.00,VWS V14.01,2013-03-12 19:05:00,
2013-03-12 14:10:00,67.1,33.8,29.65,ESE,112,2.0,6.0,29,0.00,,,0.00,VWS V14.01,2013-03-12 19:10:00,
2013-03-12 14:15:00,67.1,35.5,29.65,East,94,0.0,6.0,31,0.00,,,0.00,VWS V14.01,2013-03-12 19:15:00,
2013-03-12 14:20:00,67.0,34.6,29.65,ESE,105,4.0,6.0,30,0.00,,,0.00,VWS V14.01,2013-03-12 19:20:00,
2013-03-12 14:25:00,67.0,34.6,29.64,SE,128,1.0,6.0,30,0.00,,,0.00,VWS V14.01,2013-03-12 19:25:00,
2013-03-12 14:30:00,66.8,34.4,29.64,SSE,151,0.0,8.0,30,0.00,,,0.00,VWS V14.01,2013-03-12 19:30:00,
2013-03-12 14:35:00,67.3,35.7,29.64,SSE,154,0.0,6.0,31,0.00,,,0.00,VWS V14.01,2013-03-12 19:35:00,
2013-03-12 14:40:00,67.7,34.3,29.63,East,96,2.0,7.0,29,0.00,,,0.00,VWS V14.01,2013-03-12 19:40:00,
2013-03-12 14:45:00,68.0,34.6,29.63,SSE,151,4.0,9.0,29,0.00,,,0.00,VWS V14.01,2013-03-12 19:45:00,
2013-03-12 14:50:00,68.0,34.6,29.63,South,188,0.0,9.0,29,0.00,,,0.00,VWS V14.01,2013-03-12 19:50:00,
2013-03-12 14:55:00,68.3,34.8,29.63,ESE,112,2.0,6.0,29,0.00,,,0.00,VWS V14.01,2013-03-12 19:55:00,
2013-03-12 15:00:00,67.8,34.4,29.63,ESE,117,1.0,8.0,29,0.00,,,0.00,VWS V14.01,2013-03-12 20:00:00,
2013-03-12 15:05:00,68.7,36.0,29.63,SSW,202,0.0,5.0,30,0.00,,,0.00,VWS V14.01,2013-03-12 20:05:00,
2013-03-12 15:10:00,68.8,37.0,29.63,South,182,3.0,5.0,31,0.00,,,0.00,VWS V14.01,2013-03-12 20:10:00,
2013-03-12 15:15:00,69.1,35.5,29.63,South,171,1.0,5.0,29,0.00,,,0.00,VWS V14.01,2013-03-12 20:15:00,
2013-03-12 15:20:00,69.7,35.2,29.63,SW,234,2.0,8.0,28,0.00,,,0.00,VWS V14.01,2013-03-12 20:20:00,
2013-03-12 15:25:00,69.9,36.2,29.63,SW,233,2.0,3.0,29,0.00,,,0.00,VWS V14.01,2013-03-12 20:25:00,
2013-03-12 15:30:00,69.3,34.8,29.62,SSW,209,0.0,4.0,28,0.00,,,0.00,VWS V14.01,2013-03-12 20:30:00,
2013-03-12 15:35:00,69.3,36.6,29.62,South,176,4.0,6.0,30,0.00,,,0.00,VWS V14.01,2013-03-12 20:35:00,
2013-03-12 15:40:00,69.9,36.2,29.62,South,180,0.0,6.0,29,0.00,,,0.00,VWS V14.01,2013-03-12 20:40:00,
2013-03-12 15:45:00,70.6,37.7,29.62,SW,219,0.0,3.0,30,0.00,,,0.00,VWS V14.01,2013-03-12 20:45:00,
2013-03-12 15:50:00,69.2,34.7,29.62,SSW,213,1.0,3.0,28,0.00,,,0.00,VWS V14.01,2013-03-12 20:50:00,
2013-03-12 15:55:00,69.4,36.7,29.62,South,180,4.0,4.0,30,0.00,,,0.00,VWS V14.01,2013-03-12 20:55:00,
2013-03-12 16:00:00,69.2,35.6,29.62,South,172,0.0,6.0,29,0.00,,,0.00,VWS V14.01,2013-03-12 21:00:00,
2013-03-12 16:05:00,68.8,35.3,29.62,ESE,109,0.0,4.0,29,0.00,,,0.00,VWS V14.01,2013-03-12 21:05:00,
2013-03-12 16:10:00,69.1,35.5,29.62,ESE,117,1.0,6.0,29,0.00,,,0.00,VWS V14.01,2013-03-12 21:10:00,
2013-03-12 16:15:00,69.3,37.4,29.62,SSE,165,2.0,3.0,31,0.00,,,0.00,VWS V14.01,2013-03-12 21:15:00,
2013-03-12 16:20:00,69.5,36.7,29.62,ESE,119,0.0,3.0,30,0.00,,,0.00,VWS V14.01,2013-03-12 21:20:00,
2013-03-12 16:25:00,69.7,36.0,29.62,ESE,119,0.0,1.0,29,0.00,,,0.00,VWS V14.01,2013-03-12 21:25:00,
2013-03-12 16:30:00,69.9,35.3,29.62,South,180,0.0,3.0,28,0.00,,,0.00,VWS V14.01,2013-03-12 21:30:00,
2013-03-12 16:35:00,69.7,36.0,29.62,ESE,118,2.0,3.0,29,0.00,,,0.00,VWS V14.01,2013-03-12 21:35:00,
2013-03-12 16:40:00,69.6,35.1,29.62,ESE,118,1.0,3.0,28,0.00,,,0.00,VWS V14.01,2013-03-12 21:40:00,
2013-03-12 16:45:00,69.7,36.9,29.62,SE,138,1.0,3.0,30,0.00,,,0.00,VWS V14.01,2013-03-12 21:45:00,
2013-03-12 16:50:00,70.2,37.3,29.62,SE,138,2.0,3.0,30,0.00,,,0.00,VWS V14.01,2013-03-12 21:50:00,
2013-03-12 16:55:00,70.4,35.8,29.62,SE,146,0.0,3.0,28,0.00,,,0.00,VWS V14.01,2013-03-12 21:55:00,
2013-03-12 17:00:00,70.2,37.3,29.62,SE,146,0.0,3.0,30,0.00,,,0.00,VWS V14.01,2013-03-12 22:00:00,
2013-03-12 17:05:00,69.1,35.5,29.62,South,186,0.0,4.0,29,0.00,,,0.00,VWS V14.01,2013-03-12 22:05:00,
2013-03-12 17:10:00,69.2,34.7,29.62,SSW,205,2.0,4.0,28,0.00,,,0.00,VWS V14.01,2013-03-12 22:10:00,
2013-03-12 17:15:00,69.0,35.5,29.63,SSW,205,0.0,2.0,29,0.00,,,0.00,VWS V14.01,2013-03-12 22:15:00,
2013-03-12 17:20:00,69.2,36.5,29.63,West,260,3.0,5.0,30,0.00,,,0.00,VWS V14.01,2013-03-12 22:20:00,
2013-03-12 17:25:00,69.3,36.6,29.63,WSW,257,0.0,4.0,30,0.00,,,0.00,VWS V14.01,2013-03-12 22:25:00,
2013-03-12 17:30:00,69.1,35.5,29.63,West,277,0.0,4.0,29,0.00,,,0.00,VWS V14.01,2013-03-12 22:30:00,
2013-03-12 17:35:00,68.9,34.5,29.63,West,278,0.0,3.0,28,0.00,,,0.00,VWS V14.01,2013-03-12 22:35:00,
2013-03-12 17:40:00,68.7,35.2,29.63,NW,313,4.0,5.0,29,0.00,,,0.00,VWS V14.01,2013-03-12 22:40:00,
2013-03-12 17:45:00,68.4,34.9,29.63,NW,323,0.0,5.0,29,0.00,,,0.00,VWS V14.01,2013-03-12 22:45:00,
2013-03-12 17:50:00,68.1,35.5,29.63,NW,325,0.0,5.0,30,0.00,,,0.00,VWS V14.01,2013-03-12 22:50:00,
2013-03-12 17:55:00,67.9,36.2,29.63,NW,326,4.0,4.0,31,0.00,,,0.00,VWS V14.01,2013-03-12 22:55:00,
2013-03-12 18:00:00,67.8,36.1,29.63,NW,326,1.0,4.0,31,0.00,,,0.00,VWS V14.01,2013-03-12 23:00:00,
2013-03-12 18:05:00,67.7,35.2,29.64,NNW,331,0.0,4.0,30,0.00,,,0.00,VWS V14.01,2013-03-12 23:05:00,
2013-03-12 18:10:00,67.5,35.8,29.64,NNW,331,0.0,4.0,31,0.00,,,0.00,VWS V14.01,2013-03-12 23:10:00,
2013-03-12 18:15:00,67.3,34.8,29.64,NNW,331,0.0,3.0,30,0.00,,,0.00,VWS V14.01,2013-03-12 23:15:00,
2013-03-12 18:20:00,67.2,35.6,29.64,NNW,331,0.0,3.0,31,0.00,,,0.00,VWS V14.01,2013-03-12 23:20:00,
2013-03-12 18:25:00,67.1,35.5,29.63,NNW,332,0.0,4.0,31,0.00,,,0.00,VWS V14.01,2013-03-12 23:25:00,
2013-03-12 18:30:00,67.0,35.4,29.64,NNW,332,2.0,4.0,31,0.00,,,0.00,VWS V14.01,2013-03-12 23:30:00,
2013-03-12 18:35:00,67.0,35.4,29.64,NNW,332,0.0,1.0,31,0.00,,,0.00,VWS V14.01,2013-03-12 23:35:00,
2013-03-12 18:40:00,66.9,36.9,29.64,NNW,332,0.0,1.0,33,0.00,,,0.00,VWS V14.01,2013-03-12 23:40:00,
2013-03-12 18:45:00,66.8,36.0,29.64,NNW,332,0.0,1.0,32,0.00,,,0.00,VWS V14.01,2013-03-12 23:45:00,
2013-03-12 18:50:00,66.6,35.8,29.64,NNW,332,0.0,1.0,32,0.00,,,0.00,VWS V14.01,2013-03-12 23:50:00,
2013-03-12 18:55:00,66.5,35.8,29.64,NNW,332,0.0,1.0,32,0.00,,,0.00,VWS V14.01,2013-03-12 23:55:00,
2013-03-12 19:00:00,66.4,35.7,29.65,NNW,332,0.0,1.0,32,0.00,,,0.00,VWS V14.01,2013-03-13 00:00:00,
2013-03-12 19:05:00,66.2,36.3,29.65,NNW,332,0.0,0.0,33,0.00,,,0.00,VWS V14.01,2013-03-13 00:05:00,
2013-03-12 19:10:00,66.0,36.8,29.65,NNW,332,0.0,3.0,34,0.00,,,0.00,VWS V14.01,2013-03-13 00:10:00,
2013-03-12 19:15:00,65.6,36.5,29.65,NNW,340,2.0,3.0,34,0.00,,,0.00,VWS V14.01,2013-03-13 00:15:00,
2013-03-12 19:20:00,65.2,36.9,29.65,NNW,340,0.0,3.0,35,0.00,,,0.00,VWS V14.01,2013-03-13 00:20:00,
2013-03-12 19:25:00,65.0,37.4,29.66,NNW,340,0.0,0.0,36,0.00,,,0.00,VWS V14.01,2013-03-13 00:25:00,
2013-03-12 19:30:00,64.8,37.2,29.66,NNW,340,0.0,0.0,36,0.00,,,0.00,VWS V14.01,2013-03-13 00:30:00,
2013-03-12 19:35:00,64.4,37.6,29.66,NNW,340,0.0,0.0,37,0.00,,,0.00,VWS V14.01,2013-03-13 00:35:00,
2013-03-12 19:40:00,64.1,38.7,29.66,NNW,340,0.0,2.0,39,0.00,,,0.00,VWS V14.01,2013-03-13 00:40:00,
2013-03-12 19:45:00,63.6,38.2,29.66,NNW,340,0.0,0.0,39,0.00,,,0.00,VWS V14.01,2013-03-13 00:45:00,
2013-03-12 19:50:00,63.2,37.9,29.66,NNW,340,0.0,0.0,39,0.00,,,0.00,VWS V14.01,2013-03-13 00:50:00,
2013-03-12 19:55:00,62.8,37.5,29.67,NNW,340,0.0,0.0,39,0.00,,,0.00,VWS V14.01,2013-03-13 00:55:00,
2013-03-12 20:00:00,62.3,38.3,29.67,NNW,340,0.0,0.0,41,0.00,,,0.00,VWS V14.01,2013-03-13 01:00:00,
2013-03-12 20:05:00,61.8,38.5,29.67,NNW,340,0.0,0.0,42,0.00,,,0.00,VWS V14.01,2013-03-13 01:05:00,
2013-03-12 20:10:00,61.1,38.5,29.67,NNW,340,0.0,0.0,43,0.00,,,0.00,VWS V14.01,2013-03-13 01:10:00,
2013-03-12 20:15:00,60.5,37.9,29.68,NNW,340,0.0,0.0,43,0.00,,,0.00,VWS V14.01,2013-03-13 01:15:00,
2013-03-12 20:20:00,59.9,36.8,29.68,NNW,340,0.0,0.0,42,0.00,,,0.00,VWS V14.01,2013-03-13 01:20:00,
2013-03-12 20:25:00,59.3,37.4,29.68,NNW,340,0.0,0.0,44,0.00,,,0.00,VWS V14.01,2013-03-13 01:25:00,
2013-03-12 20:30:00,58.7,36.9,29.68,NNW,340,0.0,0.0,44,0.00,,,0.00,VWS V14.01,2013-03-13 01:30:00,
2013-03-12 20:35:00,58.2,36.4,29.69,NNW,340,0.0,0.0,44,0.00,,,0.00,VWS V14.01,2013-03-13 01:35:00,
2013-03-12 20:40:00,57.8,37.2,29.69,NNW,340,0.0,0.0,46,0.00,,,0.00,VWS V14.01,2013-03-13 01:40:00,
2013-03-12 20:45:00,57.4,37.3,29.69,NNW,340,0.0,0.0,47,0.00,,,0.00,VWS V14.01,2013-03-13 01:45:00,
2013-03-12 20:50:00,56.9,36.9,29.69,NNW,340,0.0,1.0,47,0.00,,,0.00,VWS V14.01,2013-03-13 01:50:00,
2013-03-12 20:55:00,56.6,37.7,29.69,NNW,340,0.0,0.0,49,0.00,,,0.00,VWS V14.01,2013-03-13 01:55:00,
2013-03-12 21:00:00,56.3,36.9,29.70,NNW,340,2.0,2.0,48,0.00,,,0.00,VWS V14.01,2013-03-13 02:00:00,
2013-03-12 21:05:00,55.9,36.5,29.70,NNW,340,0.0,2.0,48,0.00,,,0.00,VWS V14.01,2013-03-13 02:05:00,
2013-03-12 21:10:00,55.7,36.3,29.70,NNW,340,0.0,2.0,48,0.00,,,0.00,VWS V14.01,2013-03-13 02:10:00,
2013-03-12 21:15:00,55.5,36.2,29.70,NNW,340,0.0,1.0,48,0.00,,,0.00,VWS V14.01,2013-03-13 02:15:00,
2013-03-12 21:20:00,55.3,35.4,29.71,NNW,340,0.0,1.0,47,0.00,,,0.00,VWS V14.01,2013-03-13 02:20:00,
2013-03-12 21:25:00,55.2,36.4,29.71,NNW,340,0.0,0.0,49,0.00,,,0.00,VWS V14.01,2013-03-13 02:25:00,
2013-03-12 21:30:00,55.0,35.7,29.71,NNW,340,0.0,1.0,48,0.00,,,0.00,VWS V14.01,2013-03-13 02:30:00,
2013-03-12 21:35:00,54.9,35.1,29.72,NNW,340,0.0,1.0,47,0.00,,,0.00,VWS V14.01,2013-03-13 02:35:00,
2013-03-12 21:40:00,54.8,35.0,29.72,NNW,340,0.0,1.0,47,0.00,,,0.00,VWS V14.01,2013-03-13 02:40:00,
2013-03-12 21:45:00,54.8,35.5,29.73,NNW,340,0.0,0.0,48,0.00,,,0.00,VWS V14.01,2013-03-13 02:45:00,
2013-03-12 21:50:00,54.7,35.4,29.73,NNW,340,0.0,1.0,48,0.00,,,0.00,VWS V14.01,2013-03-13 02:50:00,
2013-03-12 21:55:00,54.6,34.8,29.73,NNW,340,0.0,2.0,47,0.00,,,0.00,VWS V14.01,2013-03-13 02:55:00,
2013-03-12 22:00:00,54.6,34.8,29.73,NNW,340,0.0,2.0,47,0.00,,,0.00,VWS V14.01,2013-03-13 03:00:00,
2013-03-12 22:05:00,54.5,34.7,29.74,NNW,340,0.0,1.0,47,0.00,,,0.00,VWS V14.01,2013-03-13 03:05:00,
2013-03-12 22:10:00,54.5,35.2,29.74,NNW,340,0.0,1.0,48,0.00,,,0.00,VWS V14.01,2013-03-13 03:10:00,
2013-03-12 22:15:00,54.4,35.1,29.75,NNW,340,0.0,0.0,48,0.00,,,0.00,VWS V14.01,2013-03-13 03:15:00,
2013-03-12 22:20:00,54.2,35.0,29.75,NNW,340,0.0,1.0,48,0.00,,,0.00,VWS V14.01,2013-03-13 03:20:00,
2013-03-12 22:25:00,54.0,35.3,29.75,NNW,340,0.0,2.0,49,0.00,,,0.00,VWS V14.01,2013-03-13 03:25:00,
2013-03-12 22:30:00,53.9,35.2,29.75,NNW,340,0.0,2.0,49,0.00,,,0.00,VWS V14.01,2013-03-13 03:30:00,
2013-03-12 22:35:00,53.7,35.0,29.75,NNW,340,0.0,1.0,49,0.00,,,0.00,VWS V14.01,2013-03-13 03:35:00,
2013-03-12 22:40:00,53.6,34.9,29.76,NNW,340,0.0,1.0,49,0.00,,,0.00,VWS V14.01,2013-03-13 03:40:00,
2013-03-12 22:45:00,53.4,34.7,29.76,NNW,340,0.0,1.0,49,0.00,,,0.00,VWS V14.01,2013-03-13 03:45:00,
2013-03-12 22:50:00,53.3,34.7,29.76,NNW,340,0.0,2.0,49,0.00,,,0.00,VWS V14.01,2013-03-13 03:50:00,
2013-03-12 22:55:00,53.2,34.5,29.76,NNW,340,0.0,0.0,49,0.00,,,0.00,VWS V14.01,2013-03-13 03:55:00,
2013-03-12 23:00:00,53.0,34.4,29.76,NNW,340,0.0,0.0,49,0.00,,,0.00,VWS V14.01,2013-03-13 04:00:00,
2013-03-12 23:05:00,52.9,34.3,29.76,NNW,340,0.0,2.0,49,0.00,,,0.00,VWS V14.01,2013-03-13 04:05:00,
2013-03-12 23:10:00,52.8,34.2,29.76,NNW,340,0.0,2.0,49,0.00,,,0.00,VWS V14.01,2013-03-13 04:10:00,
2013-03-12 23:15:00,52.7,34.6,29.77,NNW,340,0.0,0.0,50,0.00,,,0.00,VWS V14.01,2013-03-13 04:15:00,
2013-03-12 23:20:00,52.6,34.5,29.77,NNW,340,0.0,0.0,50,0.00,,,0.00,VWS V14.01,2013-03-13 04:20:00,
2013-03-12 23:25:00,52.4,34.3,29.77,NNW,340,0.0,1.0,50,0.00,,,0.00,VWS V14.01,2013-03-13 04:25:00,
2013-03-12 23:30:00,52.4,34.3,29.77,NNW,340,0.0,1.0,50,0.00,,,0.00,VWS V14.01,2013-03-13 04:30:00,
2013-03-12 23:35:00,52.3,34.7,29.77,NNW,340,0.0,0.0,51,0.00,,,0.00,VWS V14.01,2013-03-13 04:35:00,
2013-03-12 23:40:00,52.1,34.5,29.77,NNW,340,0.0,1.0,51,0.00,,,0.00,VWS V14.01,2013-03-13 04:40:00,
2013-03-12 23:45:00,51.9,34.4,29.77,NNW,340,0.0,0.0,51,0.00,,,0.00,VWS V14.01,2013-03-13 04:45:00,
2013-03-12 23:50:00,51.8,34.3,29.77,NNW,340,0.0,0.0,51,0.00,,,0.00,VWS V14.01,2013-03-13 04:50:00,
2013-03-12 23:55:00,51.7,33.7,29.77,NNW,340,0.0,0.0,50,0.00,,,0.00,VWS V14.01,2013-03-13 04:55:00,